Simultaneous Nadir Overpasses (SNOs) Predictions

Prediction of SNOs between NOAA-19 and TERRA Satellite Orbit:

Table of predicted SNOs for the next 14.0 days since TLE Epoch: 9/7/2013
Index Date (NOAA-19) Time (NOAA-19) Lat,Lon (NOAA-19) SZA (NOAA-19 ) Date (TERRA) Time (TERRA) Lat,Lon (TERRA) SZA (TERRA ) Distance(km) Time Diff (sec)
1 09/07/2013 20:32:06 -70.78, 50.61 115.09 09/07/2013 20:33:12 -70.63, 53.27 115.23 99.05 66
2 09/07/2013 21:22:53 69.68,-140.42 63.83 09/07/2013 21:22:54 69.71,-140.41 63.85 2.53 1
3 09/07/2013 22:13:41 -69.25, 27.49 116.60 09/07/2013 22:12:29 -69.32, 26.70 116.54 31.91 72
4 09/10/2013 02:07:08 69.68, 148.54 64.65 09/10/2013 02:07:11 69.70, 148.51 64.67 2.59 3
5 09/10/2013 02:57:57 -69.31, -43.65 115.71 09/10/2013 02:56:45 -69.37, -44.30 115.65 26.54 72
6 09/12/2013 06:51:23 69.68, 77.48 65.49 09/12/2013 06:51:28 69.68, 77.41 65.49 2.84 5
7 09/12/2013 07:42:13 -69.38,-114.79 114.80 09/12/2013 07:41:00 -69.47,-115.25 114.72 20.19 73
8 09/14/2013 11:35:38 69.70, 6.42 66.35 09/14/2013 11:35:44 69.71, 6.38 66.36 1.89 6
9 09/14/2013 12:26:29 -69.45, 174.05 113.88 09/14/2013 12:25:16 -69.50, 173.73 113.85 13.53 73
10 09/16/2013 16:19:53 69.72, -64.67 67.23 09/16/2013 16:20:00 69.73, -64.66 67.23 0.62 7
11 09/16/2013 17:10:45 -69.54, 102.88 112.95 09/16/2013 17:09:31 -69.57, 102.76 112.92 6.38 74
12 09/18/2013 21:04:08 69.76,-135.77 68.11 09/18/2013 21:04:16 69.74,-135.72 68.09 2.90 8
13 09/18/2013 21:55:00 -69.57, 31.78 112.06 09/18/2013 21:53:47 -69.59, 31.70 112.06 3.34 73
14 09/21/2013 01:48:22 69.75, 153.20 68.96 09/21/2013 01:48:32 69.74, 153.21 68.95 1.60 10




NCC Satellite Simultaneous Nadir Overpasses (SNOs) Prediction Service
